Wind_Speed
35 35 35 35 36 36 36 36 36 35 35 34 32 30 29 28 27 26 25 24 23 22 22 22 20 19 18 18 17 15 14 13 11 10 10 10 9 8 8 9 10 10 11 11 11 12 14 17 20 24 27 31 34 36 38 40 41 41 41 41 43 44 41 39 39 40 39 38 40 43 45 44 42 40 40 42 43 44 44 45 44 43 42 41 40 41 41 41
38 38 38 38 38 39 39 38 38 37 37 36 34 33 31 30 29 28 27 26 25 25 24 24 23 22 21 21 20 19 18 16 14 13 12 12 11 10 10 10 10 10 10 11 11 11 12 13 14 17 20 24 28 31 34 37 38 39 39 39 39 41 41 39 38 40 40 38 39 39 39 40 39 37 36 37 39 39 39 38 36 35 34 33 34 36 37 37
41 41 41 41 41 41 41 40 40 39 39 38 37 35 34 32 32 31 30 29 28 27 26 26 26 25 24 23 23 22 21 20 18 16 15 15 14 13 12 12 11 11 10 10 11 11 12 12 12 13 14 16 19 24 28 31 33 35 36 34 34 37 39 38 35 35 34 32 34 33 31 33 35 35 33 33 33 33 32 30 29 28 28 28 30 32 33 35
44 44 44 44 44 44 43 43 42 41 41 40 39 38 36 35 34 34 33 31 30 29 28 29 28 27 26 26 25 25 24 24 22 19 19 18 16 16 15 14 13 13 12 12 11 11 12 12 12 12 12 13 14 16 19 22 25 28 30 32 32 33 36 36 33 30 28 28 30 31 29 29 29 28 25 24 25 23 23 22 22 23 23 25 26 27 28 31
47 47 47 47 47 46 46 45 44 43 43 42 41 40 39 38 37 36 36 34 32 31 30 30 30 30 29 28 28 27 27 26 26 24 22 21 19 18 18 17 16 15 15 14 14 13 13 12 12 12 12 13 13 13 14 15 17 19 22 26 29 30 31 32 27 20 21 23 24 25 23 21 20 20 18 18 19 18 17 17 17 18 20 22 23 24 26 28
49 49 49 49 49 49 48 47 46 45 44 44 43 42 41 40 39 39 38 37 35 33 32 32 32 32 31 30 30 30 29 29 29 27 25 25 22 21 21 20 20 18 18 17 16 15 14 14 14 13 13 13 13 13 13 13 14 14 16 20 23 23 23 24 21 15 18 19 18 19 18 16 18 19 17 17 17 16 16 15 15 16 18 20 21 22 25 26
51 51 51 51 51 50 50 49 48 47 46 46 45 44 43 42 41 41 40 39 38 36 34 33 33 33 33 32 32 31 31 31 31 30 29 27 26 24 23 24 23 21 20 19 19 18 17 17 17 16 15 15 14 14 14 14 14 15 15 18 19 20 19 19 19 18 18 18 18 19 18 17 18 19 18 18 16 14 14 14 14 15 17 19 20 21 22 24
53 53 53 53 52 52 51 50 49 49 48 47 47 46 45 44 43 42 41 40 39 38 36 35 35 35 34 34 34 33 34 33 32 32 32 30 29 28 26 26 26 24 22 21 21 21 20 20 19 18 17 16 16 17 17 16 16 16 16 17 19 19 17 18 20 19 19 19 20 20 20 19 19 20 19 18 16 13 12 15 14 14 16 19 20 21 22 23
54 54 54 54 54 53 52 51 51 51 50 50 49 48 47 46 45 44 42 41 40 39 38 37 37 36 36 36 36 35 35 35 33 34 34 33 32 30 29 29 28 27 25 24 23 24 24 23 21 20 19 19 20 20 20 19 18 17 17 18 19 20 18 20 22 22 21 21 21 21 21 20 20 19 18 18 17 12 11 15 16 16 17 19 21 23 23 22
55 55 55 55 55 54 54 53 53 52 52 52 51 51 49 48 47 45 44 43 41 40 39 39 38 38 38 38 38 37 37 37 35 35 36 35 34 33 32 32 31 30 29 27 26 26 26 25 23 22 22 24 25 23 23 22 20 19 20 20 21 22 22 22 23 23 22 22 22 22 21 21 20 18 17 17 17 13 12 15 17 17 18 18 20 22 22 20
57 56 56 56 56 56 56 55 55 55 55 54 53 52 51 50 48 47 45 44 43 42 41 40 40 40 39 40 40 38 38 39 37 36 37 37 36 35 35 34 33 32 31 30 29 28 28 27 26 25 27 28 27 25 25 24 23 22 22 23 23 23 24 24 24 24 23 23 23 22 21 21 19 18 17 16 16 14 14 16 17 16 16 16 16 18 18 19
58 58 58 58 59 59 58 58 57 57 57 57 56 54 53 52 50 48 47 46 45 43 42 42 41 41 41 42 42 39 40 41 38 37 39 39 38 37 37 36 35 35 34 33 32 31 30 29 28 30 31 30 28 27 26 26 26 26 26 25 25 24 25 25 24 24 24 23 22 22 21 21 19 19 18 15 15 16 15 15 16 16 15 15 14 15 17 19
60 60 61 61 61 61 61 60 60 59 58 58 58 56 54 53 52 51 49 48 47 46 45 43 43 43 43 45 43 40 43 43 40 39 40 41 40 39 39 38 37 37 36 35 35 34 32 31 31 34 33 31 31 30 29 29 28 28 28 27 27 27 27 26 25 25 24 23 23 23 22 21 20 19 18 17 15 15 15 15 15 16 16 15 14 15 17 17
62 63 63 63 63 63 63 62 62 61 60 59 59 58 56 55 54 53 52 51 50 49 48 46 46 45 45 48 44 43 46 45 43 42 41 42 42 41 42 41 40 39 38 38 37 36 35 34 35 35 35 34 33 32 32 31 29 30 29 29 29 29 29 28 27 27 26 25 25 25 23 21 21 19 19 18 14 15 16 15 15 16 16 16 15 15 16 15
64 64 64 64 64 65 64 64 64 63 62 61 60 60 59 58 57 56 55 54 53 52 51 50 49 48 49 50 46 46 49 48 46 44 42 44 44 44 44 43 42 41 41 40 39 39 38 37 37 37 37 36 35 34 35 33 31 32 31 31 31 31 31 29 29 29 28 27 27 27 24 22 22 21 20 18 15 16 16 14 15 17 15 15 16 16 17 14
67 66 66 66 66 67 67 66 66 66 65 64 64 63 62 61 60 59 59 58 57 56 55 54 53 52 52 53 50 49 50 51 49 46 45 46 47 47 46 45 45 44 43 42 41 41 40 40 39 39 38 37 37 37 37 35 34 34 34 34 33 33 32 31 32 31 30 29 29 28 25 23 23 22 21 19 16 17 16 15 16 16 15 15 17 18 18 13
70 70 70 70 70 70 70 69 69 69 69 68 67 67 66 65 64 63 62 61 61 60 59 58 57 55 56 56 54 52 51 53 52 49 49 49 48 48 47 47 47 46 45 44 44 43 43 42 42 41 40 39 39 39 38 37 37 37 37 36 35 35 34 34 34 32 32 32 31 28 26 25 24 23 23 21 17 17 18 18 17 16 15 16 18 18 17 13
73 73 73 73 73 73 73 73 72 72 72 71 70 70 70 69 68 66 65 65 64 64 63 61 59 59 59 59 58 55 53 55 55 53 52 51 50 49 49 49 49 48 47 46 46 46 45 45 44 42 41 41 41 40 40 42 40 39 39 38 36 35 35 36 36 34 34 34 31 29 28 27 26 25 25 23 19 18 19 18 18 17 15 15 17 18 16 12
76 76 76 76 76 76 76 76 75 75 75 74 74 73 73 73 72 70 68 68 68 67 66 63 62 63 62 62 62 59 56 57 57 56 56 54 52 51 52 52 50 49 49 49 49 48 48 47 45 44 43 43 43 43 45 45 41 40 40 39 37 36 36 37 38 37 36 36 34 31 30 28 28 27 26 24 20 19 20 18 18 18 15 14 16 17 15 12
80 80 80 80 79 79 79 79 79 78 77 77 77 76 75 75 75 73 71 72 71 70 69 65 64 67 65 64 65 62 60 60 59 59 58 57 55 54 54 54 52 51 50 51 52 51 49 47 46 46 46 46 46 47 47 45 42 41 41 40 39 38 37 39 40 39 37 38 37 34 33 31 31 30 27 25 22 21 21 19 18 19 17 14 14 15 14 12
83 83 83 83 83 83 83 83 83 82 82 81 81 81 79 78 79 76 73 74 75 73 72 69 67 69 68 67 67 66 64 63 62 60 60 59 57 56 56 55 54 53 53 54 54 51 48 47 49 49 49 49 48 48 47 45 43 43 43 42 42 40 40 41 42 41 39 41 41 38 36 34 34 32 29 27 25 24 23 21 18 18 18 15 13 14 13 11
83 83 84 84 85 84 85 86 86 86 85 85 85 85 84 82 82 81 78 76 78 77 75 73 70 70 73 72 70 69 67 66 65 62 62 61 58 57 57 56 56 56 57 55 53 51 49 51 53 52 51 50 49 48 47 46 45 45 45 45 44 44 44 44 45 43 42 44 45 42 39 38 37 35 32 29 28 26 25 23 20 18 18 16 14 14 12 11
84 84 85 85 85 85 85 86 86 86 86 86 87 87 87 86 85 85 82 79 80 82 79 77 75 74 77 76 72 71 71 70 68 65 64 62 61 61 60 59 58 59 58 54 53 53 53 56 56 53 52 50 49 48 48 48 47 46 47 47 47 48 47 47 47 47 46 47 48 45 43 43 42 39 35 32 29 27 26 25 22 19 18 16 15 14 12 11
88 88 88 88 89 88 87 87 88 87 86 86 87 87 87 87 87 86 85 81 79 83 84 81 80 78 78 80 78 74 73 74 71 67 66 66 66 66 64 62 62 61 58 56 56 56 57 59 56 53 52 50 50 49 49 49 49 48 48 48 49 50 49 48 49 50 49 48 48 47 46 46 45 41 38 34 31 29 27 25 23 21 19 18 17 14 12 12
91 91 91 91 92 92 91 90 91 90 89 89 89 88 88 87 87 85 84 82 77 80 86 84 80 80 81 84 82 76 75 76 74 71 69 69 70 70 68 66 66 64 62 61 60 60 61 60 56 54 54 52 52 51 51 51 50 50 49 49 50 50 49 49 49 50 50 48 47 48 47 47 46 44 41 38 34 31 30 27 25 23 20 19 18 15 14 14
94 95 95 95 95 95 95 94 94 93 93 93 91 91 91 90 89 87 85 83 78 79 86 86 82 81 83 84 81 78 78 76 76 75 71 71 72 72 71 68 67 66 65 67 65 63 64 62 59 58 57 55 54 53 52 52 51 50 49 50 51 50 49 48 48 49 49 48 48 49 47 48 48 45 44 41 37 34 33 29 27 25 22 20 19 17 15 15
95 97 97 98 98 98 99 98 98 97 96 96 94 93 93 92 92 91 89 86 83 83 86 88 86 83 84 85 82 80 77 75 77 77 72 71 72 73 71 68 67 67 67 69 66 61 63 64 61 60 59 57 54 53 53 52 51 50 51 52 50 49 47 47 47 48 48 48 49 48 46 47 47 46 45 43 41 38 35 32 29 27 25 22 20 18 17 16
94 95 97 98 98 98 99 100 100 101 100 100 99 97 95 94 93 93 92 90 89 89 88 90 91 88 86 86 83 80 78 77 78 78 75 72 72 73 71 68 67 67 69 67 63 61 64 65 62 61 60 57 54 54 54 53 50 51 52 50 48 47 46 46 47 47 48 48 48 48 47 47 46 46 46 45 44 40 37 36 32 29 27 24 21 20 18 18
93 95 96 97 98 98 98 99 100 101 101 101 101 100 98 97 96 96 95 92 92 95 92 92 94 93 91 87 84 82 81 80 79 80 79 75 73 75 72 70 69 69 69 66 63 64 65 65 63 61 59 56 55 55 54 51 51 52 51 48 46 45 45 45 45 45 47 46 46 47 48 47 46 47 48 47 46 44 42 39 34 31 30 26 23 22 20 19
94 96 97 98 99 99 98 98 99 99 100 100 99 99 98 98 98 98 98 94 96 101 98 95 95 95 94 91 87 86 85 83 81 82 82 77 75 76 74 73 73 71 70 68 65 65 65 65 63 60 57 56 56 55 52 50 51 51 48 46 45 44 45 45 45 46 46 43 44 47 49 48 46 47 49 48 48 48 46 42 36 33 32 28 25 23 21 20
96 97 98 99 99 100 100 99 99 99 99 99 99 98 97 97 96 96 96 96 101 107 104 100 97 93 93 92 89 88 88 87 85 85 84 80 77 77 76 75 73 72 71 68 65 66 67 65 61 58 57 57 56 53 51 50 51 50 46 45 45 44 45 46 45 45 42 42 46 50 52 50 47 49 53 51 50 50 48 43 38 35 33 30 27 24 22 20
99 100 101 101 101 101 101 101 100 99 99 98 98 97 97 96 95 94 95 97 104 108 106 103 96 91 92 92 90 89 88 88 89 88 86 83 80 79 77 75 74 72 70 67 66 67 67 64 61 60 59 59 57 53 52 52 52 50 47 47 46 45 45 45 44 42 42 46 50 52 53 49 47 54 56 53 53 53 50 45 40 36 34 32 29 26 23 21
102 103 104 104 103 103 103 102 101 100 99 97 96 95 96 96 95 95 96 100 106 106 102 98 94 91 92 93 93 92 90 90 90 89 88 86 84 83 80 79 78 75 72 72 73 71 69 67 65 62 59 60 57 53 52 53 53 52 49 48 47 46 45 44 43 43 44 48 50 51 50 45 48 54 54 51 52 53 51 47 42 38 36 34 31 29 26 23
103 104 105 105 105 104 104 103 102 101 99 97 95 93 92 92 93 95 98 105 109 104 96 92 90 90 91 93 96 97 95 93 92 92 90 88 86 84 83 82 80 78 77 79 78 74 72 70 65 61 59 60 58 54 53 55 56 54 51 51 48 46 45 44 44 44 46 47 48 47 45 45 49 51 50 49 48 50 51 48 44 40 37 35 33 31 29 26
101 103 104 104 104 104 104 104 103 101 99 97 94 92 92 91 92 96 101 108 109 101 95 91 87 87 89 91 96 99 99 98 97 97 94 91 88 85 84 82 81 80 81 80 77 75 74 70 66 66 65 63 61 58 58 58 57 55 53 51 47 46 47 45 44 45 46 46 45 43 43 47 49 47 47 48 45 46 48 49 46 41 38 36 33 32 31 28
97 97 98 99 99 99 100 100 100 99 97 95 93 93 94 95 94 97 103 108 104 96 91 91 89 87 87 90 94 98 102 103 103 103 100 95 91 88 87 85 84 82 81 79 76 75 74 70 69 71 69 66 64 63 62 60 58 57 54 49 47 49 49 45 43 44 44 42 42 42 45 47 46 44 46 46 45 44 46 48 48 43 40 38 34 33 33 30
88 88 89 89 89 90 91 91 92 92 91 89 88 89 92 94 96 99 102 99 92 88 87 88 90 89 88 91 95 99 104 107 108 107 103 99 94 92 90 88 87 85 82 80 78 77 74 71 72 72 69 67 66 66 66 62 60 58 52 50 52 52 47 42 41 41 40 40 41 42 44 44 43 44 46 47 46 44 45 47 47 43 41 39 36 35 35 33
79 78 79 80 80 81 81 82 82 82 82 81 80 82 86 89 93 97 100 93 84 85 87 88 90 90 89 92 95 99 103 106 107 106 102 99 96 94 93 92 92 89 85 83 82 80 76 75 75 73 71 69 69 70 68 62 59 56 52 53 53 49 43 40 39 38 38 40 42 41 42 43 43 44 46 47 46 45 46 46 46 43 42 42 41 39 38 37
72 71 71 72 72 73 73 74 74 73 73 73 72 75 78 82 86 92 96 91 84 85 89 91 94 92 90 91 93 97 100 101 102 102 100 100 99 99 100 98 96 92 89 88 86 82 78 78 77 74 72 72 71 71 65 58 57 55 53 53 51 44 42 40 37 36 38 40 41 41 42 44 44 45 46 46 44 45 46 46 46 46 46 48 47 43 42 40
66 66 65 65 65 66 66 66 67 67 66 65 65 67 70 74 79 85 90 88 85 88 90 93 96 95 92 92 92 95 99 101 100 100 99 100 102 103 103 101 99 96 93 90 86 83 81 79 77 75 75 75 70 65 60 56 55 55 52 51 49 44 43 41 36 35 37 39 40 41 42 44 43 42 42 41 41 43 45 45 46 48 49 51 50 46 44 42
60 60 60 60 59 59 60 60 61 61 60 59 60 61 62 66 71 77 83 85 85 88 89 91 96 98 98 97 95 95 97 99 100 100 100 102 104 104 103 102 101 98 94 89 85 83 82 80 79 78 77 72 63 60 61 58 56 56 55 53 51 48 46 43 36 34 36 39 40 40 42 43 39 36 36 38 39 42 43 44 46 50 52 52 51 49 46 44
55 54 54 54 54 53 54 54 55 56 55 54 55 56 57 58 62 67 73 79 83 86 89 92 97 99 99 97 97 96 95 96 100 102 102 104 105 103 99 98 97 94 93 90 86 84 83 81 80 80 76 70 63 62 65 63 60 60 58 56 55 52 49 45 39 37 38 39 41 42 44 42 33 31 37 38 39 41 43 44 47 51 53 52 53 52 49 46
51 50 49 49 50 49 49 50 51 51 51 49 49 52 53 54 56 58 63 70 77 83 89 94 98 100 99 97 97 97 95 95 99 102 103 104 104 98 92 90 91 91 91 90 89 90 91 87 83 80 77 72 69 68 68 67 64 61 58 57 55 52 50 47 43 42 40 42 44 44 46 43 32 30 36 37 37 40 41 44 48 51 54 54 54 53 51 48
46 47 47 45 45 46 45 45 46 47 47 46 45 47 49 50 51 53 56 61 69 79 87 93 98 100 100 99 99 99 98 97 100 104 105 105 103 96 89 87 88 89 88 89 91 94 94 89 84 80 79 76 74 72 71 68 62 58 58 57 54 52 52 50 47 45 43 45 47 46 49 46 35 32 33 32 36 40 41 44 48 51 55 55 54 54 53 50
43 43 44 43 43 43 42 41 41 43 43 43 43 43 45 47 48 50 52 56 63 73 82 88 94 100 101 101 102 102 100 99 102 106 107 107 103 95 89 88 88 87 87 87 91 92 90 87 83 81 81 79 74 70 68 66 61 58 57 57 54 54 53 51 49 47 46 48 48 48 51 45 37 36 33 27 32 37 40 44 46 49 53 54 54 54 52 50
43 42 42 42 42 42 42 40 38 39 40 40 40 40 41 43 45 47 49 53 58 67 76 83 90 98 102 103 103 104 103 103 104 106 108 107 101 93 89 89 88 87 85 87 90 91 89 87 83 81 81 80 75 71 71 71 68 63 60 58 57 56 55 54 52 49 48 49 48 50 52 45 38 39 33 27 30 34 37 41 44 46 50 53 53 53 53 53
43 42 40 40 41 41 40 40 38 36 37 37 36 36 38 40 42 44 46 49 55 62 70 78 86 94 100 102 103 105 106 107 106 105 107 106 99 91 88 89 89 86 85 87 91 91 90 88 85 81 82 82 78 75 75 75 71 66 63 62 61 60 57 55 54 52 52 52 50 52 53 47 42 40 35 33 35 35 35 38 41 45 49 51 53 54 56 59
44 44 42 39 39 39 38 38 37 35 34 34 33 32 35 37 39 42 44 46 52 58 65 73 81 89 96 100 103 106 108 110 108 106 106 103 96 89 88 89 88 86 87 89 90 92 91 89 86 83 83 83 80 77 76 74 71 68 64 62 62 62 59 57 57 56 55 54 53 54 53 48 45 42 40 40 38 36 37 37 39 43 47 49 52 55 59 60
44 44 43 39 36 36 36 35 35 34 33 33 31 29 31 34 36 38 41 43 49 55 62 69 77 84 91 97 102 106 110 111 109 107 105 101 95 89 88 89 87 87 90 90 89 90 89 87 84 84 85 86 84 79 77 74 71 68 65 63 63 64 61 60 61 60 57 57 57 57 54 50 47 46 46 44 40 38 38 36 36 39 43 47 50 55 58 58
44 42 42 40 36 34 34 33 32 31 30 30 29 27 28 31 33 35 39 41 46 52 59 65 73 79 86 93 99 106 110 110 108 108 105 100 95 91 89 89 88 88 91 92 89 87 86 86 87 88 89 88 84 80 77 74 71 70 69 67 65 65 64 63 64 62 60 60 60 59 55 52 49 49 50 48 42 37 35 33 34 37 41 44 48 51 54 56
44 43 41 39 36 33 32 31 30 29 28 27 27 25 25 28 30 32 36 39 43 49 55 62 68 75 81 88 96 103 109 108 107 107 104 98 95 93 92 91 90 89 91 93 90 86 87 90 92 91 89 85 81 79 77 75 75 76 74 68 63 63 65 65 64 63 62 61 63 63 58 53 51 51 52 50 42 37 35 35 35 36 38 40 44 48 51 55
45 44 42 40 36 33 31 30 28 27 26 25 25 24 22 24 27 29 33 36 40 46 52 58 64 71 78 85 91 99 105 106 105 105 102 96 94 95 95 93 91 90 91 92 89 87 90 92 92 91 88 83 82 81 80 79 79 77 71 64 62 65 67 68 67 65 64 63 65 64 59 54 54 55 55 52 46 42 41 38 36 36 37 39 42 45 49 53
Wind_Direction
251 252 253 255 256 256 257 258 259 261 262 262 262 262 263 263 263 262 261 259 256 255 254 251 247 241 236 236 237 236 229 218 206 201 198 192 191 188 181 175 167 164 161 162 170 180 194 205 214 220 224 226 228 229 230 231 231 232 232 235 237 237 240 245 248 250 255 261 264 265 267 270 273 274 273 271 272 275 275 277 279 280 281 281 279 279 281 283
251 252 253 254 255 256 257 258 260 261 263 264 264 263 263 264 263 262 260 259 256 254 253 251 249 245 240 236 236 237 236 231 220 213 212 204 200 201 199 195 187 179 175 171 168 168 173 182 194 206 215 221 225 228 230 231 231 232 233 236 239 239 240 245 249 250 254 263 268 269 267 268 271 275 279 277 275 277 278 280 282 281 280 280 280 280 280 281
251 252 253 254 255 256 257 258 260 262 263 265 265 265 265 265 264 263 260 258 256 254 253 251 249 246 243 240 237 235 236 236 229 221 222 217 208 209 207 206 204 198 192 187 182 179 176 176 180 188 197 208 217 222 226 229 230 231 231 234 239 239 239 244 249 251 254 259 262 265 268 269 273 277 280 279 278 280 281 282 281 278 275 276 280 281 280 279
252 253 253 254 256 257 258 259 260 262 263 264 265 266 266 266 265 264 262 259 256 254 252 251 249 247 245 243 240 237 235 236 235 228 227 226 219 217 215 211 211 211 207 203 199 194 190 188 186 187 190 194 201 210 217 222 224 226 227 228 233 236 237 241 245 248 248 249 256 265 271 274 278 278 277 277 278 281 282 284 280 276 274 275 278 281 282 282
253 254 255 256 257 258 258 259 260 261 263 264 265 265 266 265 265 264 263 261 257 254 252 250 249 248 246 244 242 240 237 235 236 233 231 231 226 225 223 218 214 216 217 213 210 208 204 203 201 199 199 199 198 202 206 209 212 216 220 221 226 231 234 236 238 246 249 253 264 269 270 274 276 275 274 275 278 280 282 286 285 283 284 282 280 283 285 286
254 255 256 257 257 258 259 259 260 261 261 262 263 264 264 265 265 264 264 262 259 255 252 250 249 248 247 245 243 242 240 237 235 234 233 233 231 230 230 227 220 217 221 220 217 215 214 214 214 212 211 211 209 208 207 204 202 203 206 210 215 221 227 228 227 240 256 261 265 263 265 267 266 269 275 279 279 280 283 285 287 289 289 287 285 287 288 288
256 256 257 258 258 258 259 260 260 261 261 261 262 262 263 263 263 263 263 261 260 256 252 249 248 247 246 246 244 242 242 240 237 236 234 233 233 233 234 234 230 223 223 226 224 220 220 220 220 220 220 221 222 220 217 213 208 202 201 204 205 208 216 224 226 236 250 255 255 257 263 263 264 270 275 278 275 278 283 282 282 281 284 288 288 289 290 291
257 257 258 258 259 259 259 260 260 260 261 261 261 262 262 262 262 261 261 260 258 256 253 249 247 246 246 245 244 242 242 241 239 238 236 233 232 234 235 237 236 232 227 227 230 227 224 224 223 223 223 226 229 229 226 222 218 212 207 207 207 209 219 233 236 238 245 248 249 254 260 261 263 268 270 270 271 277 283 283 281 277 283 287 286 287 289 292
258 259 259 259 259 259 259 259 260 260 261 261 261 262 262 261 261 260 258 257 256 254 253 250 247 246 245 245 244 242 242 242 240 240 239 235 233 233 235 237 238 238 234 230 231 233 232 228 227 226 226 228 229 230 231 228 225 223 218 215 216 217 223 235 241 241 243 246 249 255 260 260 261 265 268 269 274 277 276 281 284 284 287 286 283 283 284 288
259 259 260 260 260 260 260 260 260 260 261 261 262 262 262 261 260 259 257 255 253 252 251 250 248 246 244 244 243 242 241 241 240 241 242 239 237 234 234 236 237 238 238 236 233 235 238 236 233 230 229 230 229 228 232 232 231 231 229 226 224 224 226 231 237 241 244 247 253 258 261 262 264 266 270 273 277 277 276 282 285 288 290 285 281 279 280 288
260 260 260 260 260 260 260 261 261 262 262 262 262 262 262 260 259 258 256 254 252 250 248 248 247 247 245 244 243 242 242 241 238 240 243 242 240 238 236 236 238 238 238 240 238 236 238 240 240 237 234 232 231 230 232 234 233 233 235 233 232 232 233 234 237 241 245 249 253 257 261 265 267 269 272 276 277 278 282 285 284 290 293 287 281 277 282 294
261 261 261 261 261 261 261 262 262 262 263 263 263 262 261 260 258 257 255 254 252 249 247 246 246 246 246 245 244 242 243 242 238 238 242 243 243 242 240 238 238 239 239 239 241 240 239 239 241 242 240 238 237 234 232 234 234 233 235 236 237 237 238 240 242 243 246 250 254 257 260 265 268 271 273 273 272 276 282 283 285 291 293 291 285 277 283 296
261 262 262 262 262 262 262 262 262 262 262 263 262 261 260 259 258 256 254 253 252 250 247 245 245 244 245 245 244 244 244 242 239 238 240 243 244 244 244 242 241 241 241 240 241 242 242 240 241 243 244 244 243 241 237 235 235 236 236 237 239 240 241 242 244 247 249 251 254 256 258 262 267 271 272 274 272 272 280 284 285 290 291 290 285 278 281 293
262 262 262 262 263 263 263 262 262 262 261 261 261 261 260 259 258 256 255 253 252 251 249 246 245 244 245 245 244 245 246 244 241 239 240 242 244 245 245 245 244 243 243 243 243 243 243 242 242 244 245 246 246 245 243 240 239 239 238 237 239 240 242 243 245 249 251 251 253 255 257 261 265 268 270 275 268 264 280 286 282 284 289 290 282 279 286 294
263 263 263 263 263 263 263 263 262 262 261 261 260 260 259 258 258 257 255 254 253 252 251 249 247 245 246 246 244 245 246 246 243 241 241 243 244 244 245 246 246 246 245 245 245 244 244 244 244 245 246 246 247 247 247 244 242 242 240 239 240 241 242 243 245 247 249 251 253 255 257 260 264 266 267 270 263 262 275 278 275 280 287 288 281 284 292 295
264 264 264 264 264 264 264 264 263 263 262 261 261 260 259 258 258 257 257 255 254 253 252 252 250 248 248 247 245 244 247 248 246 243 242 243 244 244 244 246 246 246 246 246 246 247 246 245 246 247 247 248 247 247 248 247 245 244 242 239 239 240 241 242 243 244 246 249 252 254 256 258 261 264 265 266 265 266 268 267 270 277 283 282 278 283 291 291
265 264 264 264 264 264 264 263 263 263 262 262 261 261 260 259 258 258 257 257 256 255 254 253 252 251 250 250 247 245 247 250 248 245 243 242 243 245 245 245 246 246 246 247 247 247 247 247 246 247 248 248 248 248 249 247 244 243 243 242 241 241 242 243 243 243 245 246 249 252 254 255 257 261 263 262 263 261 261 268 270 270 277 279 278 282 287 284
265 265 264 263 263 263 263 263 263 263 262 262 261 261 261 260 259 258 258 257 257 256 255 254 254 254 253 252 250 247 246 249 249 247 246 244 243 244 245 245 246 246 246 247 247 247 247 247 248 248 248 247 247 247 246 245 244 244 245 245 244 244 244 245 245 245 246 247 247 250 252 254 255 257 260 260 260 254 255 268 272 268 273 278 282 287 287 280
266 265 265 264 263 263 263 262 262 262 262 261 261 260 260 260 259 258 258 257 256 256 256 255 255 255 254 253 252 249 248 249 250 249 248 246 244 244 246 247 246 247 247 247 247 246 247 247 248 248 246 245 245 244 245 247 248 247 248 249 247 246 245 247 248 246 247 249 248 249 251 253 254 254 256 259 260 253 251 262 270 271 273 275 283 288 286 277
266 265 265 264 263 263 262 262 262 261 261 261 260 259 259 259 259 258 258 258 257 256 256 255 255 255 254 254 254 252 250 249 249 250 249 248 247 246 247 247 247 247 247 247 247 246 247 248 247 245 244 244 245 246 248 250 251 250 250 250 249 247 245 247 248 247 248 250 248 247 249 250 251 252 252 254 256 250 250 257 264 270 273 272 277 280 277 271
265 265 264 263 263 262 262 261 261 261 260 260 260 259 258 258 259 258 257 258 258 256 256 254 254 255 255 253 254 253 251 250 250 250 250 249 248 247 247 247 247 247 246 246 247 247 248 247 245 244 244 245 246 248 250 251 250 250 250 250 249 248 246 246 247 247 246 249 248 246 247 249 250 250 250 250 251 249 252 255 256 264 270 270 272 273 272 264
265 264 264 263 262 261 261 260 260 259 259 259 259 259 258 257 257 257 256 257 258 257 256 255 253 254 254 252 252 253 252 251 250 249 250 250 249 249 247 247 246 246 246 246 248 248 247 245 244 244 245 246 248 249 250 251 250 250 250 250 250 248 247 247 248 247 245 247 248 246 245 247 247 248 247 246 247 249 253 256 255 259 265 267 267 268 268 262
265 265 264 263 262 261 260 260 259 258 258 258 257 257 257 257 256 256 256 255 257 257 256 255 253 252 254 254 251 251 252 251 249 249 250 250 250 249 247 247 247 246 247 247 247 246 244 244 244 245 246 247 249 250 251 252 252 251 251 250 250 249 247 247 248 248 245 245 248 248 246 245 245 246 246 245 245 247 251 254 255 256 258 262 262 262 263 259
266 265 264 264 263 262 261 260 259 258 257 257 256 256 255 255 255 255 255 253 254 256 255 253 253 252 252 253 251 250 251 251 250 249 249 250 249 249 248 248 248 248 248 247 246 245 244 245 246 247 247 248 249 251 252 253 252 251 251 250 249 249 249 248 248 249 247 246 249 250 248 247 246 245 246 246 244 244 246 249 252 252 252 256 255 254 259 256
267 266 265 264 264 263 261 260 260 259 257 256 256 256 255 255 254 253 253 251 250 253 255 252 251 250 250 250 251 250 249 250 251 249 248 248 249 249 248 248 249 249 248 247 245 245 245 246 247 247 248 248 249 250 251 251 251 251 251 250 249 249 249 248 248 249 249 248 249 249 249 249 248 246 245 245 243 242 242 242 246 248 247 251 251 246 251 252
267 266 265 265 264 264 263 261 260 259 258 257 255 255 255 254 254 253 252 251 248 248 252 253 250 248 249 249 249 248 248 249 250 249 247 247 248 249 248 248 249 248 247 247 246 246 248 248 248 248 248 248 249 251 251 251 251 250 250 249 249 250 249 249 248 249 250 249 248 247 247 248 248 248 247 246 243 240 240 238 240 244 243 245 247 245 248 251
267 266 266 265 264 263 263 262 261 260 259 258 256 255 255 254 254 253 252 251 249 246 248 251 250 248 247 248 247 247 247 247 248 247 246 246 246 247 248 247 246 247 246 246 247 246 247 248 246 246 247 248 248 248 248 248 248 249 249 249 249 250 250 250 249 248 249 248 247 247 245 246 247 247 247 246 244 241 240 237 235 237 239 239 243 245 245 249
267 267 266 265 264 263 263 262 262 261 260 259 258 256 255 254 253 253 252 251 250 248 247 248 250 248 247 247 247 247 245 244 245 246 244 242 243 245 246 245 243 243 243 244 245 243 244 245 245 244 245 246 245 245 246 247 248 248 248 249 250 250 250 250 249 249 249 248 248 246 244 243 244 244 244 244 244 241 239 236 232 232 234 233 237 242 239 241
268 267 266 266 265 264 263 262 262 261 261 260 259 257 256 255 253 253 252 251 250 249 247 246 247 248 247 246 246 246 245 244 244 245 244 241 242 243 243 243 241 240 242 243 243 242 243 245 245 244 245 245 244 245 246 248 248 248 249 250 250 250 249 249 249 248 247 247 248 247 243 240 239 240 241 241 243 241 238 235 230 229 232 230 231 238 238 237
269 268 268 267 266 265 264 263 262 262 262 261 260 259 258 256 255 253 252 251 251 250 247 245 245 246 247 246 245 245 245 244 243 244 244 242 241 242 242 241 241 241 242 243 242 243 244 244 245 246 246 245 245 246 247 247 248 248 249 249 249 248 248 248 247 246 246 246 245 243 240 237 236 237 237 237 238 239 237 234 229 226 230 229 227 232 237 238
271 270 269 269 268 268 266 265 263 262 261 261 261 260 259 258 256 255 253 251 250 249 247 245 243 244 247 247 246 245 245 245 244 243 244 243 241 242 242 242 243 243 244 245 245 246 246 247 247 246 245 245 244 245 246 246 247 248 248 248 248 247 247 247 246 246 246 242 239 239 238 235 232 232 232 230 232 236 236 234 229 225 227 228 225 227 233 237
272 272 271 271 270 270 269 268 266 265 263 261 260 259 259 258 257 256 255 252 250 249 248 246 245 244 246 248 248 246 246 246 246 245 245 244 242 242 242 242 243 243 244 245 245 245 246 247 246 243 242 243 243 243 244 244 246 247 246 247 247 246 246 246 246 245 242 239 238 240 242 239 234 233 234 230 229 233 234 231 228 225 225 227 225 224 225 228
275 274 274 273 272 271 271 270 269 268 266 264 261 259 258 257 256 255 254 253 251 249 248 247 246 244 244 245 246 246 245 244 245 245 244 243 242 242 241 240 241 240 240 240 240 239 240 240 240 239 240 242 242 241 242 244 245 245 245 245 245 245 245 244 243 242 240 240 241 243 245 243 238 238 240 237 233 233 233 231 227 223 223 225 225 225 223 223
277 276 276 276 275 274 273 272 271 269 268 266 264 261 259 257 255 254 252 252 251 249 248 247 245 244 242 242 243 244 243 242 243 243 243 242 241 241 241 240 240 240 240 239 239 239 239 239 240 240 240 241 241 240 240 241 242 243 243 243 244 244 244 242 241 240 240 241 242 244 244 242 239 239 241 241 237 233 233 232 227 222 221 224 225 226 224 223
278 277 277 276 276 275 274 272 271 270 268 267 265 263 261 258 254 252 250 250 249 248 247 246 244 241 241 240 240 242 242 242 241 241 240 239 239 239 239 239 239 239 239 240 241 241 241 241 241 239 237 237 237 236 235 237 240 241 241 242 244 244 242 240 240 241 241 242 244 244 241 239 239 239 239 240 237 232 231 232 229 222 220 223 225 227 227 226
279 279 278 277 275 274 273 272 271 270 268 267 265 262 260 257 254 251 249 248 248 248 247 246 244 240 238 238 238 238 239 239 238 238 237 237 236 236 236 236 236 236 237 238 239 240 241 240 239 239 238 237 237 236 234 235 237 239 240 241 241 241 240 239 240 242 244 244 243 241 238 238 238 237 236 237 234 229 227 229 228 222 219 222 224 227 229 228
282 281 280 279 277 275 274 272 270 269 267 266 263 260 257 255 253 252 250 249 248 249 248 246 245 241 236 235 235 235 235 236 235 235 235 234 234 235 235 235 235 234 234 235 235 235 236 236 236 237 237 236 236 236 235 234 235 238 239 239 239 240 241 239 240 243 245 245 242 239 239 238 237 235 234 233 231 227 224 226 227 221 218 221 222 225 228 227
286 284 283 281 279 278 276 274 272 270 267 265 261 258 255 252 250 250 251 250 247 246 246 245 244 242 237 234 234 235 236 236 236 236 235 234 233 234 234 234 233 233 232 233 233 233 233 233 233 234 234 234 233 234 235 234 236 239 239 239 240 242 243 240 240 242 242 241 240 238 238 237 234 233 233 232 229 226 223 223 224 219 216 219 220 221 225 225
289 287 285 283 281 280 278 276 274 272 269 266 261 257 253 250 248 247 248 247 244 242 241 241 241 241 238 234 233 234 236 237 238 238 236 234 232 231 231 231 232 231 230 230 231 231 231 232 233 232 232 232 231 233 235 234 236 238 237 240 242 242 242 240 240 240 240 240 240 238 238 237 233 231 232 232 230 226 223 222 221 217 215 217 218 217 221 222
292 289 287 284 282 281 279 277 275 273 271 267 263 257 253 249 246 245 245 244 241 238 236 235 236 238 237 236 233 232 234 235 236 236 236 235 233 231 230 230 230 230 230 230 231 231 230 231 232 233 232 232 232 234 236 234 234 235 234 237 239 239 240 240 239 239 239 240 241 240 239 238 235 234 235 233 231 228 225 221 220 218 216 217 218 216 218 221
293 291 289 287 284 282 280 277 276 274 271 268 265 260 255 250 245 242 242 241 237 236 235 233 232 233 233 234 232 230 230 232 234 234 234 234 233 232 230 229 229 230 230 231 231 233 233 231 232 232 232 233 233 233 233 230 229 230 229 230 232 233 234 234 233 232 234 236 238 239 239 239 236 234 233 230 227 225 223 220 219 219 217 217 218 217 217 220
296 293 291 290 288 285 282 279 276 274 271 268 265 262 257 252 247 242 239 238 235 233 233 232 231 231 231 230 230 230 228 229 232 234 233 233 233 231 230 231 231 231 229 229 228 230 232 232 231 232 233 232 230 229 229 228 225 225 225 225 227 228 229 229 225 223 226 230 232 234 236 235 230 228 228 223 221 221 220 219 218 218 217 216 217 218 216 219
301 299 296 294 291 288 285 282 279 276 273 268 264 261 258 253 248 243 237 234 232 231 229 229 229 230 230 229 229 229 227 226 228 232 233 234 234 232 230 230 232 232 231 229 227 226 228 227 227 229 231 230 227 226 226 226 224 223 224 225 225 227 228 227 221 218 219 224 228 232 235 231 221 224 227 221 219 220 218 219 218 218 218 215 216 217 216 217
308 306 302 299 296 292 288 285 281 278 275 271 265 261 257 253 248 243 237 232 229 228 227 226 227 228 228 227 227 227 226 224 224 227 230 232 232 231 228 228 229 230 230 230 229 228 229 228 226 226 228 229 227 226 227 228 226 224 224 225 224 226 228 227 222 217 217 224 227 230 235 230 220 225 229 220 219 219 217 220 219 218 218 216 215 216 216 216
314 313 310 307 302 298 293 288 283 280 276 272 267 262 257 253 248 243 238 231 226 225 226 225 225 226 226 226 225 226 226 224 223 224 227 229 229 227 225 225 226 226 227 228 230 231 231 231 229 226 228 229 227 227 230 231 230 226 224 226 225 225 226 227 224 217 216 225 229 232 236 232 223 227 228 219 219 219 218 221 220 218 219 218 215 216 216 216
319 318 317 314 309 304 300 294 288 283 278 273 268 262 257 253 248 243 237 231 225 223 224 223 223 224 225 224 224 224 224 225 224 223 224 227 227 225 223 223 223 224 224 225 227 229 229 230 229 227 228 229 226 224 225 226 226 223 221 222 225 225 223 224 224 217 215 222 227 232 236 234 227 228 224 217 221 222 221 223 221 218 219 219 217 215 215 216
324 321 320 318 312 307 303 298 292 287 281 276 269 263 257 253 248 243 237 230 226 223 222 222 221 222 223 223 223 223 223 224 224 222 223 225 225 223 222 222 222 222 223 223 224 226 226 227 226 225 226 229 227 223 223 224 224 222 219 218 220 223 221 220 223 218 215 218 224 229 234 235 232 230 224 221 224 225 226 225 222 218 218 218 217 215 215 216
328 325 322 320 315 309 304 300 295 291 286 280 273 265 258 253 247 243 238 230 226 223 221 220 220 221 222 222 222 222 223 223 223 222 222 223 223 222 221 222 220 219 221 222 222 223 224 224 224 222 223 226 227 225 224 225 225 224 221 218 219 222 220 218 220 219 214 216 221 227 232 233 233 231 227 224 224 225 227 225 222 220 218 217 217 216 216 217
330 328 324 322 319 313 308 303 298 293 289 283 276 268 260 255 248 242 238 231 226 223 220 219 219 220 220 220 220 221 222 222 222 222 221 220 220 220 220 221 219 218 219 221 221 222 223 223 223 222 222 223 223 223 223 225 225 225 223 219 218 220 220 217 218 218 215 214 219 225 228 231 232 233 232 227 224 225 226 225 224 222 219 218 218 217 218 218
333 331 328 325 322 318 312 306 301 296 291 286 279 270 261 256 249 242 237 231 226 223 221 219 219 219 219 220 219 220 221 222 221 222 220 217 216 218 219 220 218 216 218 219 219 220 221 221 222 222 222 223 222 221 221 222 223 224 223 219 216 217 220 218 217 218 215 214 218 223 225 227 230 233 234 230 223 225 228 229 228 225 221 220 220 219 218 218
336 335 333 329 327 324 319 312 307 302 296 291 284 275 264 257 251 244 238 232 226 224 222 219 218 218 219 219 218 218 220 221 221 221 220 215 213 215 218 219 218 216 217 218 217 216 218 219 220 221 221 222 223 222 221 220 221 222 222 220 216 215 218 219 218 218 217 215 218 221 223 224 226 231 234 230 223 225 230 229 229 227 223 222 221 219 217 217
340 340 338 335 331 330 327 320 314 309 302 296 289 281 271 261 253 246 239 233 227 224 222 220 218 218 218 219 218 218 219 220 220 221 219 214 210 212 215 218 217 216 216 217 216 215 216 218 219 220 220 220 222 222 221 220 220 221 221 220 217 215 216 218 218 217 217 216 219 222 222 223 225 227 231 230 225 225 228 227 227 227 225 224 223 220 217 216
Height
10958 10958 10958 10958 10958 10958 10958 10959 10959 10960 10960 10961 10962 10964 10965 10966 10966 10967 10967 10968 10969 10970 10970 10970 10971 10972 10973 10973 10973 10973 10973 10974 10974 10974 10974 10975 10975 10976 10976 10977 10978 10978 10979 10979 10979 10980 10981 10981 10982 10983 10983 10984 10985 10986 10987 10988 10990 10992 10993 10993 10993 10995 10997 10996 10996 10997 10998 10999 11000 11000 11000 10999 10999 10999 11000 10999 10999 10998 10998 10998 10998 10997 10995 10993 10992 10990 10989 10988
10954 10954 10954 10954 10954 10955 10955 10956 10956 10957 10957 10958 10959 10961 10962 10963 10963 10964 10965 10965 10967 10967 10968 10968 10969 10970 10970 10971 10972 10972 10972 10972 10973 10973 10973 10974 10974 10975 10975 10976 10977 10977 10978 10979 10979 10980 10980 10980 10981 10981 10982 10982 10983 10984 10984 10986 10987 10989 10990 10990 10990 10994 10995 10994 10995 10995 10998 11000 10998 10997 10997 10995 10995 10996 10997 10997 10995 10995 10995 10995 10995 10994 10992 10990 10988 10987 10986 10985
10951 10951 10951 10951 10951 10951 10952 10953 10953 10954 10954 10955 10956 10957 10958 10959 10960 10960 10961 10963 10964 10965 10965 10965 10966 10967 10968 10969 10970 10970 10970 10971 10971 10972 10972 10972 10973 10974 10974 10975 10976 10977 10977 10978 10978 10979 10979 10980 10980 10980 10981 10981 10981 10982 10982 10984 10985 10987 10988 10988 10988 10991 10992 10992 10994 10994 10997 10999 10995 10994 10994 10993 10993 10993 10995 10994 10993 10993 10993 10993 10992 10991 10990 10988 10986 10985 10984 10983
10947 10947 10947 10947 10948 10948 10949 10949 10950 10951 10951 10952 10953 10954 10955 10956 10956 10957 10958 10959 10961 10962 10962 10962 10963 10964 10965 10966 10967 10968 10968 10969 10969 10970 10970 10971 10972 10972 10973 10974 10974 10975 10976 10977 10977 10978 10979 10979 10979 10980 10980 10980 10980 10980 10981 10982 10983 10984 10986 10987 10987 10988 10989 10990 10992 10993 10996 10995 10993 10992 10992 10991 10991 10991 10992 10992 10991 10991 10991 10991 10989 10988 10988 10986 10985 10983 10982 10981
10943 10943 10943 10944 10944 10944 10945 10946 10946 10947 10948 10948 10949 10950 10951 10952 10953 10953 10954 10955 10957 10958 10959 10959 10960 10961 10962 10963 10964 10965 10966 10967 10967 10968 10968 10969 10970 10970 10971 10972 10973 10973 10974 10975 10976 10977 10977 10978 10978 10979 10979 10979 10979 10979 10980 10981 10982 10983 10984 10985 10985 10986 10987 10989 10990 10991 10991 10991 10991 10990 10989 10990 10989 10989 10991 10990 10990 10990 10990 10990 10988 10986 10986 10985 10983 10982 10981 10979
10939 10939 10939 10939 10939 10940 10941 10941 10942 10943 10944 10944 10945 10946 10947 10948 10949 10949 10950 10951 10952 10954 10956 10956 10956 10957 10958 10959 10961 10961 10962 10963 10964 10965 10966 10967 10968 10968 10969 10970 10971 10972 10972 10973 10974 10975 10976 10976 10977 10977 10978 10978 10978 10979 10979 10980 10981 10982 10982 10983 10984 10985 10986 10988 10989 10988 10987 10989 10990 10988 10988 10989 10988 10988 10988 10988 10988 10989 10989 10989 10988 10986 10984 10982 10982 10981 10979 10978
10934 10935 10935 10935 10935 10935 10936 10937 10938 10938 10939 10940 10941 10942 10943 10944 10945 10945 10946 10947 10948 10950 10951 10952 10953 10954 10955 10956 10957 10958 10959 10960 10961 10962 10963 10964 10965 10966 10966 10967 10968 10970 10971 10971 10972 10973 10974 10975 10975 10976 10976 10976 10977 10977 10978 10978 10979 10980 10981 10982 10983 10984 10986 10987 10987 10986 10986 10987 10988 10986 10986 10986 10986 10986 10987 10987 10987 10988 10988 10988 10987 10986 10983 10981 10980 10979 10978 10977
10930 10930 10930 10930 10930 10931 10932 10932 10933 10933 10934 10935 10936 10937 10938 10939 10940 10941 10942 10943 10944 10945 10947 10948 10949 10950 10951 10952 10953 10955 10955 10956 10958 10958 10959 10961 10962 10963 10964 10964 10965 10967 10969 10970 10970 10971 10972 10972 10973 10974 10975 10975 10975 10976 10976 10977 10978 10979 10980 10981 10983 10983 10984 10985 10984 10985 10985 10985 10985 10985 10985 10985 10985 10985 10986 10986 10986 10987 10987 10986 10985 10984 10982 10981 10979 10978 10977 10976
10925 10925 10925 10925 10925 10926 10927 10927 10928 10928 10929 10930 10931 10932 10933 10934 10935 10937 10937 10938 10939 10940 10942 10943 10944 10946 10947 10948 10949 10951 10951 10952 10955 10955 10956 10958 10959 10960 10961 10961 10962 10964 10965 10967 10968 10968 10969 10970 10971 10972 10973 10974 10973 10974 10974 10975 10976 10977 10979 10979 10981 10981 10982 10982 10983 10983 10983 10983 10983 10983 10983 10984 10984 10984 10985 10984 10985 10986 10985 10984 10983 10983 10981 10980 10978 10977 10976 10975
10920 10920 10920 10920 10920 10920 10921 10922 10922 10923 10923 10924 10925 10926 10927 10929 10930 10931 10932 10933 10935 10936 10937 10938 10940 10941 10942 10943 10944 10946 10947 10948 10951 10951 10951 10953 10955 10957 10957 10958 10959 10960 10962 10963 10965 10966 10966 10968 10969 10970 10971 10970 10970 10972 10972 10973 10975 10976 10977 10978 10978 10979 10980 10981 10981 10981 10981 10981 10981 10981 10982 10982 10983 10983 10983 10983 10983 10984 10984 10982 10982 10981 10980 10978 10977 10976 10974 10974
10914 10914 10915 10914 10914 10915 10916 10917 10917 10917 10918 10918 10919 10920 10922 10923 10924 10926 10927 10928 10929 10931 10932 10933 10935 10936 10938 10938 10939 10942 10943 10944 10947 10947 10947 10949 10951 10952 10953 10955 10956 10957 10958 10959 10961 10963 10964 10965 10967 10967 10967 10967 10968 10970 10971 10971 10973 10974 10974 10975 10976 10977 10978 10979 10979 10979 10980 10980 10980 10980 10980 10981 10981 10982 10982 10981 10981 10982 10982 10980 10980 10979 10978 10977 10977 10974 10973 10972
10908 10908 10908 10908 10908 10908 10910 10910 10911 10912 10912 10912 10913 10914 10916 10917 10918 10920 10921 10922 10923 10926 10927 10929 10930 10931 10933 10932 10934 10938 10938 10938 10942 10944 10943 10944 10946 10948 10949 10951 10952 10953 10955 10956 10957 10959 10961 10963 10964 10963 10963 10965 10966 10967 10969 10969 10970 10971 10972 10973 10974 10974 10975 10976 10977 10977 10978 10978 10978 10979 10979 10979 10979 10980 10980 10981 10980 10980 10980 10980 10979 10978 10977 10976 10976 10974 10972 10971
10901 10901 10901 10901 10901 10901 10903 10903 10904 10905 10906 10906 10906 10908 10910 10910 10912 10914 10915 10916 10918 10920 10921 10924 10925 10926 10928 10926 10930 10934 10931 10933 10938 10939 10939 10940 10942 10943 10944 10946 10948 10949 10951 10952 10954 10955 10957 10959 10960 10959 10960 10963 10963 10965 10966 10967 10968 10969 10970 10970 10971 10972 10972 10973 10974 10975 10976 10976 10976 10976 10977 10977 10977 10978 10978 10979 10980 10980 10979 10979 10978 10977 10976 10975 10974 10973 10972 10970
10894 10894 10894 10894 10894 10894 10895 10896 10897 10897 10899 10900 10899 10901 10903 10904 10905 10907 10909 10910 10912 10913 10915 10918 10919 10922 10922 10920 10925 10928 10925 10928 10932 10934 10935 10936 10937 10938 10939 10941 10943 10945 10946 10948 10950 10951 10952 10954 10955 10956 10958 10959 10960 10962 10963 10965 10966 10966 10967 10968 10969 10969 10969 10971 10972 10972 10973 10974 10974 10974 10975 10976 10976 10976 10976 10977 10979 10979 10978 10978 10977 10976 10976 10974 10973 10971 10971 10969
10887 10887 10887 10887 10887 10887 10887 10888 10889 10890 10891 10892 10892 10893 10895 10897 10898 10900 10902 10903 10906 10907 10909 10912 10914 10916 10916 10915 10921 10922 10920 10922 10925 10929 10931 10931 10932 10933 10934 10936 10938 10939 10942 10943 10945 10946 10948 10950 10951 10952 10953 10955 10957 10959 10959 10962 10963 10964 10965 10966 10966 10966 10967 10969 10969 10969 10970 10971 10971 10972 10973 10974 10974 10975 10975 10975 10977 10978 10977 10976 10974 10975 10975 10973 10971 10970 10970 10969
10879 10879 10879 10879 10879 10879 10879 10880 10880 10881 10883 10884 10885 10885 10887 10889 10891 10893 10895 10896 10899 10900 10903 10905 10906 10910 10910 10910 10914 10916 10916 10916 10918 10924 10925 10925 10926 10927 10930 10931 10932 10934 10936 10939 10940 10942 10944 10945 10947 10948 10949 10952 10953 10954 10956 10959 10960 10960 10961 10962 10963 10964 10965 10966 10966 10967 10968 10968 10968 10970 10972 10973 10972 10972 10973 10974 10975 10976 10975 10975 10973 10973 10973 10972 10971 10970 10969 10969
10870 10871 10871 10871 10871 10870 10871 10871 10872 10873 10873 10875 10876 10877 10878 10880 10882 10885 10887 10889 10891 10892 10895 10897 10900 10903 10903 10903 10907 10911 10912 10910 10912 10917 10917 10920 10921 10922 10925 10925 10927 10929 10931 10934 10935 10936 10938 10940 10942 10944 10946 10947 10948 10950 10952 10954 10955 10956 10957 10959 10960 10961 10962 10962 10963 10965 10965 10965 10966 10967 10969 10970 10970 10970 10971 10972 10973 10975 10974 10973 10972 10972 10972 10971 10970 10969 10968 10968
10860 10861 10861 10862 10862 10862 10862 10862 10863 10863 10864 10866 10867 10868 10869 10870 10873 10877 10879 10880 10882 10884 10887 10890 10894 10895 10895 10897 10899 10903 10906 10904 10905 10909 10910 10913 10916 10917 10918 10919 10922 10924 10926 10928 10930 10931 10933 10935 10938 10940 10942 10942 10944 10946 10946 10946 10949 10952 10953 10955 10958 10959 10960 10959 10960 10962 10962 10962 10964 10965 10966 10967 10967 10968 10969 10969 10971 10973 10973 10971 10970 10970 10971 10970 10968 10968 10967 10966
10849 10850 10851 10851 10852 10852 10851 10852 10853 10853 10854 10855 10857 10859 10860 10860 10862 10868 10871 10870 10873 10876 10878 10884 10886 10884 10887 10889 10889 10895 10900 10899 10898 10901 10903 10906 10910 10912 10912 10913 10917 10918 10921 10922 10923 10926 10928 10931 10934 10935 10936 10936 10938 10939 10938 10941 10946 10949 10950 10952 10955 10956 10957 10956 10956 10959 10959 10959 10961 10963 10963 10964 10964 10965 10966 10967 10968 10970 10971 10970 10968 10968 10969 10968 10967 10966 10966 10965
10838 10839 10839 10839 10841 10841 10840 10841 10841 10842 10844 10844 10845 10848 10850 10851 10851 10858 10862 10859 10863 10867 10869 10877 10877 10874 10879 10881 10880 10887 10890 10890 10892 10893 10895 10899 10903 10906 10906 10907 10910 10912 10914 10914 10916 10920 10923 10927 10928 10927 10929 10930 10933 10934 10934 10938 10944 10945 10946 10948 10951 10952 10953 10952 10952 10955 10956 10955 10958 10959 10959 10960 10961 10961 10963 10964 10965 10967 10967 10969 10968 10966 10966 10967 10966 10965 10965 10964
10826 10826 10826 10827 10828 10829 10829 10829 10830 10831 10832 10833 10834 10835 10839 10841 10840 10846 10852 10850 10852 10856 10860 10866 10868 10866 10869 10872 10872 10875 10879 10882 10886 10887 10888 10891 10895 10898 10899 10901 10904 10905 10905 10907 10910 10915 10920 10922 10919 10919 10923 10926 10928 10930 10931 10935 10939 10940 10941 10943 10945 10948 10949 10948 10947 10950 10952 10951 10952 10955 10956 10957 10957 10957 10960 10961 10962 10964 10964 10966 10967 10966 10965 10965 10965 10964 10964 10964
10813 10813 10813 10813 10814 10817 10816 10816 10818 10819 10819 10822 10822 10822 10826 10830 10830 10833 10841 10844 10841 10843 10850 10853 10859 10860 10854 10859 10865 10865 10870 10874 10877 10880 10881 10884 10888 10890 10892 10893 10896 10896 10897 10903 10907 10911 10915 10911 10909 10914 10919 10921 10924 10926 10927 10930 10933 10935 10936 10938 10940 10942 10943 10943 10943 10945 10948 10947 10947 10950 10952 10952 10953 10954 10956 10958 10959 10961 10962 10962 10964 10965 10964 10963 10963 10963 10963 10963
10800 10800 10800 10799 10800 10803 10804 10802 10804 10806 10807 10808 10809 10811 10812 10815 10820 10821 10828 10837 10832 10829 10838 10842 10845 10849 10843 10846 10855 10857 10860 10863 10867 10873 10874 10878 10880 10880 10883 10886 10887 10888 10892 10899 10901 10903 10904 10899 10902 10911 10914 10917 10920 10921 10923 10924 10927 10930 10930 10932 10934 10935 10937 10938 10938 10939 10942 10943 10942 10945 10948 10948 10949 10950 10951 10954 10956 10958 10959 10959 10961 10963 10963 10962 10961 10961 10962 10962
10787 10787 10787 10786 10785 10788 10790 10789 10789 10792 10795 10795 10796 10798 10799 10802 10806 10810 10815 10825 10827 10818 10820 10828 10832 10838 10836 10831 10838 10849 10851 10851 10858 10866 10868 10870 10869 10870 10876 10878 10878 10882 10888 10892 10893 10895 10893 10892 10900 10908 10909 10912 10914 10915 10917 10918 10920 10923 10924 10926 10927 10928 10931 10933 10933 10934 10936 10939 10940 10941 10943 10943 10945 10946 10948 10950 10952 10955 10956 10957 10958 10960 10961 10960 10959 10960 10960 10960
10773 10773 10773 10773 10771 10772 10775 10776 10775 10777 10781 10782 10783 10784 10787 10790 10792 10799 10803 10810 10821 10811 10800 10813 10823 10824 10822 10817 10827 10840 10840 10841 10848 10855 10859 10859 10858 10861 10866 10869 10871 10876 10881 10882 10885 10887 10885 10888 10898 10901 10903 10905 10907 10909 10911 10911 10914 10916 10919 10920 10920 10922 10926 10927 10928 10928 10930 10935 10937 10937 10938 10939 10940 10943 10945 10946 10949 10951 10952 10954 10956 10957 10958 10959 10957 10958 10959 10959
10758 10757 10758 10759 10757 10756 10758 10760 10761 10763 10765 10766 10770 10772 10774 10777 10778 10786 10790 10795 10809 10804 10788 10796 10808 10810 10808 10809 10820 10825 10827 10835 10837 10840 10850 10850 10849 10850 10855 10862 10865 10867 10871 10871 10875 10881 10880 10884 10892 10893 10895 10898 10901 10904 10904 10905 10908 10911 10912 10912 10913 10917 10920 10922 10924 10924 10926 10930 10931 10932 10935 10935 10936 10940 10941 10943 10945 10947 10949 10951 10953 10954 10956 10956 10955 10956 10958 10957
10743 10741 10741 10742 10742 10742 10741 10743 10745 10747 10749 10750 10755 10759 10760 10764 10767 10771 10777 10783 10791 10789 10783 10783 10788 10796 10797 10797 10806 10812 10821 10828 10822 10826 10840 10841 10838 10840 10846 10855 10856 10857 10860 10860 10870 10878 10874 10875 10883 10885 10887 10892 10895 10897 10896 10898 10902 10905 10904 10906 10909 10913 10915 10917 10918 10919 10921 10922 10924 10928 10931 10930 10932 10935 10936 10938 10940 10943 10945 10947 10950 10951 10952 10954 10954 10954 10956 10956
10727 10725 10724 10723 10726 10727 10725 10726 10728 10728 10731 10734 10737 10742 10746 10750 10754 10757 10761 10769 10772 10772 10776 10773 10770 10779 10783 10786 10796 10804 10811 10814 10811 10816 10825 10828 10828 10830 10837 10845 10847 10847 10847 10853 10865 10868 10862 10865 10874 10877 10880 10886 10889 10889 10889 10893 10898 10898 10897 10902 10905 10908 10910 10911 10912 10914 10915 10916 10919 10922 10925 10926 10928 10929 10931 10933 10935 10938 10940 10942 10946 10948 10949 10951 10951 10952 10954 10955
10712 10710 10708 10705 10708 10710 10710 10712 10711 10710 10712 10717 10720 10724 10730 10734 10739 10743 10744 10754 10757 10751 10758 10762 10758 10762 10768 10777 10788 10791 10795 10801 10805 10805 10807 10819 10822 10821 10829 10834 10835 10837 10839 10849 10857 10855 10855 10860 10865 10870 10875 10880 10881 10881 10884 10890 10892 10890 10893 10898 10900 10902 10904 10904 10907 10908 10909 10912 10915 10915 10918 10921 10922 10924 10926 10929 10930 10932 10934 10937 10942 10944 10945 10948 10949 10950 10951 10952
10696 10694 10691 10690 10690 10690 10694 10695 10695 10696 10696 10700 10703 10706 10714 10717 10723 10727 10729 10743 10740 10724 10736 10747 10745 10749 10754 10764 10776 10779 10782 10788 10795 10793 10794 10809 10813 10812 10820 10821 10823 10830 10833 10841 10848 10848 10850 10853 10858 10866 10871 10873 10874 10876 10881 10885 10884 10884 10889 10893 10894 10897 10897 10899 10901 10901 10905 10910 10908 10905 10908 10913 10916 10919 10921 10923 10924 10925 10928 10933 10938 10941 10942 10945 10947 10949 10949 10949
10680 10677 10674 10674 10673 10672 10674 10675 10676 10680 10681 10684 10686 10690 10697 10699 10705 10711 10715 10726 10716 10699 10714 10726 10732 10746 10749 10752 10764 10770 10773 10775 10781 10783 10786 10797 10803 10804 10809 10813 10818 10825 10828 10836 10843 10842 10841 10846 10856 10862 10864 10864 10867 10872 10876 10878 10877 10879 10885 10887 10888 10891 10891 10893 10896 10898 10903 10903 10896 10894 10899 10906 10912 10912 10911 10916 10918 10919 10923 10929 10934 10938 10940 10942 10945 10947 10948 10948
10664 10661 10657 10657 10656 10655 10655 10655 10657 10660 10662 10667 10669 10673 10679 10680 10688 10694 10696 10701 10688 10678 10695 10708 10726 10746 10744 10743 10753 10758 10763 10765 10767 10773 10778 10786 10792 10795 10801 10807 10811 10816 10823 10831 10834 10832 10834 10841 10848 10851 10854 10856 10861 10867 10869 10870 10872 10874 10879 10880 10881 10884 10886 10889 10891 10894 10896 10891 10888 10890 10894 10904 10908 10903 10904 10911 10914 10915 10920 10926 10930 10934 10937 10940 10943 10945 10947 10947
10648 10644 10640 10638 10638 10637 10637 10636 10637 10639 10642 10646 10651 10656 10660 10664 10672 10675 10676 10673 10657 10661 10684 10698 10718 10734 10734 10737 10739 10740 10748 10751 10753 10759 10765 10773 10779 10783 10791 10795 10798 10806 10814 10815 10813 10819 10824 10828 10834 10842 10848 10850 10854 10861 10864 10865 10865 10867 10872 10873 10875 10879 10881 10884 10886 10887 10887 10884 10885 10888 10893 10901 10902 10898 10903 10910 10912 10914 10917 10922 10927 10931 10934 10937 10940 10942 10944 10946
10632 10627 10622 10619 10618 10617 10617 10616 10617 10618 10621 10624 10630 10637 10641 10648 10654 10654 10654 10642 10629 10649 10676 10686 10704 10716 10720 10726 10723 10722 10730 10735 10739 10743 10748 10758 10765 10771 10778 10784 10790 10798 10800 10798 10802 10811 10816 10820 10831 10840 10843 10843 10848 10855 10857 10856 10856 10859 10864 10865 10869 10874 10875 10878 10880 10880 10880 10879 10882 10886 10892 10895 10893 10895 10901 10905 10910 10913 10915 10919 10924 10928 10932 10934 10936 10939 10941 10944
10615 10609 10604 10600 10598 10597 10595 10594 10595 10596 10599 10602 10608 10616 10621 10627 10632 10631 10626 10610 10608 10639 10663 10671 10687 10697 10703 10711 10710 10710 10713 10717 10722 10725 10731 10742 10751 10760 10767 10773 10780 10784 10785 10788 10799 10806 10809 10819 10827 10828 10829 10834 10838 10844 10846 10847 10849 10853 10856 10861 10867 10869 10869 10872 10875 10875 10875 10876 10880 10885 10887 10885 10887 10893 10896 10900 10907 10911 10912 10915 10920 10925 10929 10931 10934 10936 10938 10941
10597 10591 10585 10582 10579 10577 10574 10572 10573 10573 10576 10581 10588 10595 10599 10602 10606 10604 10592 10585 10601 10631 10650 10657 10667 10678 10688 10693 10694 10695 10694 10694 10698 10702 10712 10725 10737 10747 10752 10757 10764 10769 10774 10782 10791 10796 10801 10812 10815 10813 10820 10828 10831 10834 10837 10841 10844 10846 10852 10859 10862 10859 10862 10868 10871 10870 10872 10875 10878 10880 10879 10879 10884 10889 10891 10895 10900 10905 10908 10910 10915 10922 10925 10928 10931 10933 10935 10937
10578 10573 10567 10562 10559 10556 10554 10552 10552 10553 10554 10560 10567 10572 10575 10577 10581 10577 10568 10577 10607 10628 10637 10644 10647 10656 10668 10670 10672 10671 10665 10665 10671 10680 10696 10711 10724 10733 10739 10746 10751 10756 10764 10772 10777 10783 10790 10799 10801 10803 10813 10820 10822 10824 10827 10834 10838 10842 10850 10854 10851 10853 10860 10866 10867 10868 10870 10871 10873 10874 10874 10876 10881 10884 10885 10889 10894 10899 10903 10906 10910 10918 10921 10924 10927 10929 10930 10932
10559 10556 10549 10544 10540 10537 10535 10533 10533 10534 10534 10540 10546 10548 10550 10554 10558 10558 10555 10573 10604 10614 10619 10627 10627 10632 10644 10649 10653 10651 10648 10654 10662 10672 10689 10702 10714 10722 10726 10730 10734 10741 10754 10760 10763 10771 10780 10785 10788 10794 10803 10808 10811 10812 10818 10830 10836 10840 10846 10845 10845 10852 10858 10862 10864 10864 10865 10865 10866 10868 10869 10872 10875 10877 10879 10883 10889 10894 10897 10901 10906 10913 10916 10918 10920 10923 10925 10926
10541 10539 10534 10529 10525 10521 10519 10516 10515 10516 10516 10520 10525 10526 10529 10533 10538 10540 10541 10558 10583 10592 10597 10605 10604 10610 10621 10628 10637 10641 10644 10652 10658 10666 10680 10688 10695 10701 10703 10709 10719 10730 10740 10743 10749 10761 10771 10775 10779 10788 10793 10795 10800 10805 10816 10829 10833 10836 10840 10840 10844 10851 10853 10856 10859 10859 10859 10860 10861 10863 10864 10866 10868 10871 10874 10880 10885 10890 10893 10897 10902 10906 10909 10910 10912 10917 10919 10922
10526 10522 10519 10516 10512 10508 10506 10503 10501 10500 10500 10502 10505 10507 10511 10514 10518 10522 10525 10540 10560 10567 10572 10580 10584 10592 10601 10610 10622 10628 10632 10639 10644 10654 10665 10670 10674 10679 10687 10698 10709 10717 10725 10733 10744 10753 10760 10766 10773 10779 10781 10783 10795 10808 10818 10825 10828 10830 10835 10837 10841 10846 10847 10851 10854 10855 10855 10856 10857 10859 10859 10860 10864 10869 10874 10879 10883 10886 10889 10893 10897 10900 10903 10904 10908 10912 10915 10917
10514 10509 10505 10501 10499 10496 10493 10491 10489 10487 10487 10488 10488 10490 10494 10497 10501 10506 10511 10522 10537 10545 10551 10559 10566 10570 10577 10588 10599 10607 10617 10627 10633 10639 10646 10648 10649 10659 10674 10685 10694 10706 10720 10732 10742 10747 10752 10761 10766 10767 10770 10781 10799 10809 10810 10814 10819 10822 10826 10830 10833 10837 10840 10844 10848 10850 10850 10851 10852 10853 10853 10855 10862 10868 10870 10873 10877 10880 10884 10888 10891 10893 10896 10900 10903 10907 10911 10914
10502 10498 10495 10489 10486 10484 10481 10479 10477 10475 10475 10476 10475 10476 10478 10482 10485 10492 10498 10506 10516 10526 10534 10541 10546 10549 10556 10569 10581 10590 10606 10619 10621 10624 10628 10626 10628 10646 10667 10680 10690 10704 10714 10723 10734 10740 10743 10751 10756 10758 10766 10781 10794 10796 10796 10802 10808 10811 10816 10821 10825 10829 10833 10838 10842 10844 10844 10845 10846 10846 10847 10851 10861 10863 10862 10866 10872 10875 10879 10883 10885 10886 10890 10894 10898 10902 10907 10909
10492 10487 10484 10481 10476 10473 10470 10467 10465 10463 10463 10464 10464 10464 10465 10468 10472 10477 10484 10490 10499 10507 10514 10520 10526 10532 10543 10556 10567 10576 10590 10603 10608 10610 10613 10613 10620 10643 10666 10679 10688 10696 10704 10714 10723 10723 10722 10731 10743 10751 10761 10774 10780 10782 10786 10791 10797 10805 10811 10816 10821 10825 10829 10832 10835 10836 10838 10839 10840 10842 10842 10849 10858 10858 10857 10864 10868 10870 10875 10876 10878 10880 10883 10888 10892 10897 10902 10906
10485 10478 10474 10471 10467 10463 10461 10458 10455 10453 10452 10452 10453 10453 10454 10456 10460 10464 10469 10477 10484 10489 10494 10502 10510 10517 10528 10540 10551 10559 10570 10584 10590 10591 10594 10598 10610 10637 10659 10670 10677 10685 10696 10706 10709 10707 10710 10723 10739 10748 10754 10761 10768 10773 10779 10785 10794 10804 10808 10811 10818 10822 10823 10827 10829 10832 10834 10834 10836 10838 10838 10846 10855 10854 10855 10862 10864 10866 10870 10870 10872 10875 10877 10883 10888 10892 10898 10902
10478 10472 10466 10462 10458 10454 10451 10449 10446 10444 10442 10442 10442 10443 10444 10445 10448 10452 10457 10463 10469 10473 10478 10488 10496 10503 10511 10522 10533 10542 10554 10565 10569 10571 10576 10581 10598 10626 10646 10655 10664 10673 10685 10697 10699 10702 10711 10722 10734 10742 10745 10752 10763 10772 10779 10785 10793 10800 10804 10809 10814 10816 10819 10822 10824 10829 10831 10831 10834 10835 10833 10843 10853 10850 10853 10859 10859 10862 10864 10864 10867 10871 10874 10879 10884 10889 10896 10900
10470 10465 10460 10454 10450 10446 10442 10439 10438 10435 10433 10433 10432 10433 10435 10436 10437 10441 10445 10451 10456 10460 10465 10474 10483 10488 10494 10506 10518 10528 10539 10546 10549 10556 10564 10573 10593 10619 10635 10644 10654 10663 10676 10687 10689 10693 10705 10714 10725 10736 10740 10744 10756 10766 10770 10773 10779 10789 10797 10802 10805 10809 10813 10816 10819 10825 10828 10827 10830 10829 10829 10840 10846 10846 10851 10856 10856 10857 10859 10859 10863 10867 10871 10876 10880 10887 10892 10892
10462 10458 10454 10449 10443 10438 10434 10431 10429 10427 10426 10424 10424 10425 10426 10427 10428 10430 10435 10441 10445 10450 10454 10461 10469 10474 10480 10493 10505 10514 10522 10525 10532 10545 10555 10567 10589 10612 10625 10634 10644 10657 10668 10674 10676 10684 10695 10703 10715 10729 10732 10734 10744 10754 10757 10762 10772 10782 10789 10793 10797 10801 10806 10811 10816 10820 10822 10824 10825 10823 10825 10834 10839 10842 10848 10851 10850 10853 10854 10856 10860 10863 10866 10871 10876 10881 10882 10882
10457 10450 10446 10443 10438 10432 10428 10424 10421 10420 10418 10416 10416 10417 10417 10418 10420 10422 10426 10432 10436 10440 10445 10450 10457 10462 10469 10481 10492 10500 10505 10509 10522 10536 10545 10561 10584 10603 10614 10622 10635 10650 10656 10657 10664 10673 10682 10692 10706 10718 10722 10724 10735 10746 10752 10759 10768 10775 10781 10788 10792 10794 10800 10807 10810 10812 10816 10820 10820 10818 10822 10829 10833 10837 10841 10843 10845 10849 10850 10852 10856 10859 10863 10868 10872 10873 10874 10877
10452 10446 10439 10436 10432 10427 10422 10418 10415 10413 10412 10410 10409 10410 10410 10411 10413 10415 10418 10423 10427 10431 10436 10441 10446 10451 10458 10468 10479 10486 10489 10496 10512 10525 10535 10554 10578 10594 10603 10611 10625 10639 10642 10646 10657 10667 10678 10692 10703 10709 10711 10713 10723 10736 10744 10752 10762 10769 10776 10783 10786 10788 10795 10800 10801 10804 10811 10815 10813 10814 10818 10823 10828 10831 10833 10836 10842 10844 10846 10851 10855 10857 10860 10863 10865 10866 10870 10876
10447 10441 10435 10429 10425 10422 10417 10413 10410 10408 10406 10404 10403 10403 10404 10404 10406 10408 10411 10415 10419 10422 10426 10432 10436 10442 10448 10457 10467 10474 10477 10486 10503 10514 10524 10545 10569 10584 10593 10600 10612 10625 10630 10636 10648 10664 10679 10688 10691 10695 10698 10703 10716 10730 10739 10748 10756 10761 10765 10771 10778 10784 10788 10791 10794 10798 10804 10808 10808 10809 10813 10818 10822 10825 10826 10831 10838 10842 10846 10850 10851 10852 10855 10858 10860 10863 10868 10873
10442 10436 10430 10424 10420 10416 10412 10407 10405 10402 10400 10399 10397 10397 10398 10398 10399 10401 10404 10407 10412 10415 10419 10424 10428 10434 10440 10446 10454 10461 10466 10478 10494 10503 10514 10536 10559 10574 10582 10590 10601 10614 10620 10625 10639 10658 10668 10671 10674 10681 10690 10703 10717 10726 10733 10741 10745 10747 10754 10766 10776 10781 10783 10785 10790 10794 10799 10803 10802 10803 10808 10814 10818 10820 10822 10826 10835 10840 10842 10845 10846 10848 10852 10854 10856 10859 10864 10868
10438 10431 10425 10419 10415 10411 10407 10403 10400 10398 10395 10393 10392 10391 10392 10393 10394 10395 10397 10401 10405 10408 10412 10416 10421 10426 10430 10435 10442 10450 10458 10471 10485 10495 10507 10528 10550 10564 10572 10580 10591 10602 10609 10619 10636 10649 10652 10656 10665 10675 10688 10703 10711 10716 10724 10731 10734 10742 10756 10767 10773 10775 10776 10779 10783 10787 10793 10796 10797 10799 10806 10810 10811 10814 10816 10821 10829 10834 10835 10839 10843 10845 10848 10850 10851 10855 10859 10863